Location: Bratislava
(0.0000°N, 17.1167°E)
Time: 04:54:21
(UTC+01:00)

CZ-4 R/B - Pass Details

Date: 24 January 2021
Orbit: 531 x 598 km, 97.7° (Epoch: 06 March)

Event Time Altitude Azimuth Distance (km) Brightness Sun altitude
Rises 18:38:59 0° 160° (SSE) 2,838 5.0 -8.3°
Reaches altitude 10° 18:41:13 10° 155° (SSE) 1,930 4.0 -8.9°
Maximum altitude 18:45:18 52° 79° (E) 737 1.6 -9.8°
Drops below altitude 10° 18:49:18 10° 2° (N) 1,895 3.8 -10.8°
Sets 18:51:28 0° 357° (N) 2,781 4.7 -11.3°
